Location: Holyhead Bay
(53.3667°N, 4.6667°W)
Time: 19:07:55
(UTC+00:00)

Cosmos 1842 Rocket - Pass Details

Date: 24 November 2020
Orbit: 606 x 633 km, 82.5° (Epoch: 16 January)

Event Time Altitude Azimuth Distance (km) Brightness Sun altitude
Rises 17:03:34 0° 180° (S) 2,856 7.3 -7.8°
Reaches altitude 10° 17:05:47 10° 177° (S) 1,955 6.4 -8.1°
Maximum altitude 17:10:03 62° 97° (E) 687 3.6 -8.6°
Drops below altitude 10° 17:14:21 10° 17° (NNE) 1,972 5.8 -9.2°
Sets 17:16:36 0° 14° (NNE) 2,883 6.6 -9.5°
